Flag Weather past 2 weeks in Arlington, Texas, U.S.A.

Now
57 °F

Clear.


Feels Like: 54 °F
Forecast: 51 / 72 °F
Wind: 13 mph from Southeast

Location: Arlington Municipal Airport

Current Time: Nov 22, 2014 at 9:58:13 PM

Latest Report: Nov 22, 2014 at 8:53 PM


Visibility: 9 mi

Pressure: 29.75 "Hg

Humidity: 90%

Dew point: 54 °F

Location of ArlingtonLocation

Historic Weather in Arlington — Graph

°F

Arlington temperature yesterday

Maximum temperature yesterday: 70 °F (at 3:53 PM)
Minimum temperature yesterday: 61 °F (at 3:53 AM)
Average temperature yesterday: 64 °F

Past Weeks' High & Low Weather Summary

 TemperatureHumidityPressure
High81 °F (Nov 10, 2:53 PM)93% (Nov 16, 7:53 AM)30.61 "Hg (Nov 16, 7:53 AM)
Low27 °F (Nov 17, 7:53 AM)17% (Nov 18, 2:53 PM)29.59 "Hg (Nov 10, 3:53 PM)
Average49 °F57%30.15 "Hg
* Reported Nov 7 7:53 PM — Nov 22 7:53 PM, Arlington, Weather by CustomWeather, © 2014

Note: Actual official high and low records may vary slightly from our data, if they occured in-between our weather recording intervals... More about our weather records

Advertising

Arlington weather history for previous 24 hours

 ConditionsComfort  
Time TempWeatherWind HumidityBarometerVisibility
7:53 PM
Nov 22
59 °FLight rain. Mostly cloudy.5 mph87%29.83 "Hg10 mi
6:53 PM59 °FRain. Fog.6 mph87%29.87 "Hg5 mi
5:53 PM62 °FRain. Fog.12 mph86%29.84 "Hg6 mi
5:00 PM63 °FRain. Overcast.17 mph84%29.83 "Hg7 mi
4:00 PM62 °FRain. Cloudy.15 mph86%29.82 "Hg7 mi
2:53 PM62 °FLight rain. Broken clouds.14 mph83%29.83 "Hg10 mi
2:00 PM61 °FFog.13 mph90%29.87 "Hg2 mi
1:02 PM61 °FFog.9 mph90%29.92 "Hg2 mi
12:53 PM61 °FFog.10 mph90%29.90 "Hg2 mi
11:53 AM61 °FFog.14 mph90%29.95 "Hg2 mi
10:53 AM61 °FFog.10 mph90%30.00 "Hg1 mi
9:53 AM60 °FFog.10 mph90%30.02 "Hg2 mi
8:53 AM60 °FFog.16 mph90%30.01 "Hg2 mi
7:53 AM60 °FFog.10 mph90%30.02 "Hg2 mi
6:53 AM60 °FFog.13 mph90%30.02 "Hg2 mi
5:53 AM61 °FLight rain. Fog.13 mph87%30.02 "Hg2 mi
4:53 AM61 °FLight rain. Fog.14 mph90%30.01 "Hg2 mi
3:53 AM62 °FLight rain. Fog.8 mph86%30.04 "Hg3 mi
2:53 AM62 °FLight rain. Fog.12 mph90%30.05 "Hg5 mi
1:53 AM62 °FLight rain. Fog.10 mph86%30.06 "Hg5 mi
12:53 AM63 °FLow clouds.10 mph87%30.07 "Hg9 mi
11:53 PM
Nov 21
64 °FLight rain. Fog.13 mph87%30.07 "Hg6 mi
10:53 PM66 °FLow clouds.15 mph84%30.06 "Hg10 mi
9:53 PM66 °FOvercast.14 mph84%30.06 "Hg10 mi
Weather by CustomWeather, © 2014

See weather overviewHow to use our weather pages